FW7092 Weather Reports


time (UTC)temp
F
wind
direction
speed
knots
gust
knots
rain 1hr
in
rain 24hr
in
rain mn
in
humidity
%
barometer
mb
20260504110415 50 202 6.1 7.8 0.00 0.00 0.00 76 1009.4
20260504100332 49 225 6.1 7.0 0.00 0.00 0.00 76 1009.2
20260504081726 50 208 7.0 8.7 0.00 0.00 0.00 72 1009.8
20260504081222 50 205 9.6 11.3 0.00 0.00 0.00 72 1010.2
20260504080718 50 209 7.8 9.6 0.00 0.00 0.00 71 1010.1
20260504080215 51 214 7.8 12.2 0.00 0.00 0.00 71 1010.2
20260504070142 50 217 7.8 8.7 0.00 0.00 0.00 70 1010.8
20260504050531 51 202 7.0 8.7 0.00 0.00 0.00 68 1012.5
20260504045525 51 219 7.0 9.6 0.00 0.00 0.00 67 1012.4
20260504045020 51 197 7.0 7.8 0.00 0.00 0.00 68 1012.4
20260504044518 51 219 7.0 7.8 0.00 0.00 0.00 67 1012.5
20260504044015 52 223 7.0 9.6 0.00 0.00 0.00 67 1012.6
20260504043512 51 209 7.8 8.7 0.00 0.00 0.00 68 1012.6
20260504043009 52 213 7.8 9.6 0.00 0.00 0.00 66 1012.5
20260504042506 52 211 7.8 11.3 0.00 0.00 0.00 66 1012.6
20260504042003 52 210 7.0 9.6 0.00 0.00 0.00 67 1012.6
20260504041459 52 215 6.1 8.7 0.00 0.00 0.00 66 1012.8
20260504040955 51 206 7.0 9.6 0.00 0.00 0.00 67 1012.8
20260504040453 51 196 5.2 8.7 0.00 0.00 0.00 67 1012.9
20260504035948 51 204 5.2 7.8 0.00 0.00 0.00 68 1012.8
20260504035446 51 204 6.1 8.7 0.00 0.00 0.00 68 1012.9
20260504034942 51 202 4.3 7.0 0.00 0.00 0.00 69 1012.8
20260504034440 51 196 4.3 7.0 0.00 0.00 0.00 70 1012.9
20260504033937 51 213 6.1 8.7 0.00 0.00 0.00 69 1013.0
20260504033435 51 195 6.1 7.0 0.00 0.00 0.00 70 1013.2
20260504032932 51 217 6.1 8.7 0.00 0.00 0.00 70 1013.2
20260504032428 51 205 5.2 7.8 0.00 0.00 0.00 70 1013.4
20260504031925 51 221 6.1 8.7 0.00 0.00 0.00 70 1013.4
20260504031422 51 210 4.3 8.7 0.00 0.00 0.00 71 1013.3
20260504030919 51 206 6.1 7.8 0.00 0.00 0.00 71 1013.4
20260504030416 50 203 5.2 7.0 0.00 0.00 0.00 72 1013.3
20260504025912 50 200 4.3 7.0 0.00 0.00 0.00 72 1013.6
20260504025409 50 197 4.3 7.0 0.00 0.00 0.00 71 1013.6
20260504024906 50 212 5.2 7.0 0.00 0.00 0.00 72 1013.7
20260504024403 50 198 3.5 6.1 0.00 0.00 0.00 74 1013.6
20260504023900 50 195 4.3 6.1 0.00 0.00 0.00 73 1013.7
20260504023356 50 203 1.7 4.3 0.00 0.00 0.00 74 1013.7
20260504022852 50 186 4.3 5.2 0.00 0.00 0.00 74 1013.9
20260504022349 49 204 1.7 2.6 0.00 0.00 0.00 74 1013.9
20260504021845 50 219 3.5 5.2 0.00 0.00 0.00 74 1013.8
20260504021342 49 207 3.5 4.3 0.00 0.00 0.00 74 1013.8
20260504020839 50 205 4.3 5.2 0.00 0.00 0.00 73 1013.9
20260504020336 50 211 3.5 4.3 0.00 0.00 0.00 74 1014.0
20260504015832 50 199 2.6 4.3 0.00 0.00 0.00 73 1013.9
20260504015328 50 212 2.6 5.2 0.00 0.00 0.00 73 1013.9
20260504014825 50 207 3.5 5.2 0.00 0.00 0.00 73 1013.8
20260504014321 50 204 3.5 4.3 0.00 0.00 0.00 73 1013.9
20260504013819 51 203 3.5 6.1 0.00 0.00 0.00 72 1014.0
20260504013316 50 212 4.3 5.2 0.00 0.00 0.00 73 1014.0
20260504012813 51 211 4.3 6.1 0.00 0.00 0.00 73 1014.0
20260504012311 51 210 5.2 5.2 0.00 0.00 0.00 73 1013.8
20260504011808 51 208 3.5 5.2 0.00 0.00 0.00 74 1013.9
20260504011304 51 206 3.5 5.2 0.00 0.00 0.00 73 1014.1
20260504010800 51 208 4.3 5.2 0.00 0.00 0.00 74 1014.0
20260504010256 51 217 3.5 6.1 0.00 0.00 0.00 74 1014.1
20260504005753 51 214 6.1 7.8 0.00 0.00 0.00 73 1014.0
20260504005250 51 216 6.1 7.0 0.00 0.00 0.00 73 1014.2
20260504004747 51 213 4.3 7.0 0.00 0.00 0.00 72 1014.3
20260504004244 51 212 6.1 8.7 0.00 0.00 0.00 71 1014.1
20260504003741 51 224 7.0 7.8 0.00 0.00 0.00 71 1014.3
20260504003238 51 221 4.3 7.0 0.00 0.00 0.00 71 1014.2
20260504002734 51 210 6.1 8.7 0.00 0.00 0.00 70 1014.0
20260504002231 52 217 8.7 9.6 0.00 0.00 0.00 69 1014.2
20260504001729 52 207 6.1 7.0 0.00 0.00 0.00 70 1014.2
20260504001226 52 235 6.1 11.3 0.00 0.00 0.00 69 1014.2
20260504000723 52 221 7.0 9.6 0.00 0.00 0.00 69 1014.3
20260504000219 52 207 9.6 12.2 0.00 0.00 0.00 68 1014.3
20260503235718 52 196 7.8 12.2 0.00 0.00 0.00 68 1014.5
20260503235215 52 239 7.8 8.7 0.00 0.00 0.00 69 1014.6
20260503234713 53 236 8.7 11.3 0.00 0.00 0.00 68 1014.7
20260503234210 53 221 11.3 15.6 0.00 0.00 0.00 67 1014.5
20260503233707 53 208 9.6 12.2 0.00 0.00 0.00 67 1014.7
20260503233203 53 233 7.8 13.0 0.00 0.00 0.00 68 1014.6
20260503232700 53 207 9.6 15.6 0.00 0.00 0.00 67 1014.5
20260503232157 53 214 10.4 13.9 0.00 0.00 0.00 67 1014.8
20260503231655 53 245 12.2 18.2 0.00 0.00 0.00 66 1014.7
20260503231151 54 250 12.2 18.2 0.00 0.00 0.00 66 1014.7
20260503230648 54 239 13.0 20.0 0.00 0.00 0.00 65 1014.4
20260503230145 56 238 14.8 20.9 0.00 0.00 0.00 62 1014.4
20260503225642 57 247 13.9 18.2 0.00 0.00 0.00 61 1014.4
20260503225142 56 254 12.2 18.2 0.00 0.00 0.00 61 1014.3
20260503224640 58 258 15.6 19.1 0.00 0.00 0.00 59 1014.3
20260503224138 59 259 14.8 20.0 0.00 0.00 0.00 57 1014.2
20260503223636 59 241 12.2 18.2 0.00 0.00 0.00 58 1014.1
20260503223131 59 237 16.5 21.7 0.00 0.00 0.00 56 1014.2
20260503222629 59 238 16.5 20.9 0.00 0.00 0.00 53 1014.1
20260503222126 61 220 10.4 14.8 0.00 0.00 0.00 49 1014.0
20260503221625 61 244 10.4 14.8 0.00 0.00 0.00 46 1014.0
20260503221122 61 238 12.2 18.2 0.00 0.00 0.00 46 1014.1
20260503220619 61 252 12.2 18.2 0.00 0.00 0.00 45 1014.1
20260503220115 60 246 13.0 17.4 0.00 0.00 0.00 46 1014.0
20260503215612 60 248 14.8 17.4 0.00 0.00 0.00 44 1013.9
20260503215109 61 223 13.0 18.2 0.00 0.00 0.00 45 1014.2
20260503214608 61 228 12.2 13.9 0.00 0.00 0.00 45 1014.0
20260503214103 61 241 12.2 18.2 0.00 0.00 0.00 45 1014.2
20260503213602 61 222 13.0 23.5 0.00 0.00 0.00 45 1014.1
20260503213058 60 212 14.8 17.4 0.00 0.00 0.00 45 1014.2
20260503212556 61 230 11.3 15.6 0.00 0.00 0.00 46 1014.2
20260503212053 60 237 11.3 18.2 0.00 0.00 0.00 44 1014.1
20260503211550 60 212 11.3 19.1 0.00 0.00 0.00 48 1014.3
20260503211045 60 204 11.3 19.1 0.00 0.00 0.00 46 1014.3
20260503210543 61 225 9.6 13.0 0.00 0.00 0.00 46 1014.1
20260503210038 62 228 14.8 18.2 0.00 0.00 0.00 43 1014.4
20260503205535 61 243 12.2 20.0 0.00 0.00 0.00 45 1014.1
20260503205032 62 214 18.2 21.7 0.00 0.00 0.00 42 1014.3
20260503204529 62 248 13.9 20.0 0.00 0.00 0.00 45 1014.4
20260503204026 61 215 14.8 15.6 0.00 0.00 0.00 43 1014.4
20260503203523 61 229 17.4 20.9 0.00 0.00 0.00 43 1014.6
20260503203020 62 222 14.8 21.7 0.00 0.00 0.00 44 1014.5
20260503202518 62 229 15.6 20.9 0.00 0.00 0.00 44 1014.6
20260503202015 62 218 12.2 19.1 0.00 0.00 0.00 44 1014.5
20260503201514 62 243 17.4 21.7 0.00 0.00 0.00 42 1014.7
20260503201010 62 230 15.6 19.1 0.00 0.00 0.00 43 1014.7
20260503200506 62 231 12.2 17.4 0.00 0.00 0.00 43 1014.6
20260503200003 62 230 12.2 17.4 0.00 0.00 0.00 43 1014.8
20260503195500 62 236 9.6 15.6 0.00 0.00 0.00 45 1014.7
20260503194957 61 221 13.9 20.0 0.00 0.00 0.00 44 1014.8
20260503194455 61 209 14.8 19.1 0.00 0.00 0.00 44 1014.8
20260503193949 61 233 13.9 20.0 0.00 0.00 0.00 44 1015.0
20260503193445 61 234 12.2 19.1 0.00 0.00 0.00 46 1015.1
20260503192941 61 237 15.6 20.9 0.00 0.00 0.00 44 1014.8
20260503192437 61 235 13.9 15.6 0.00 0.00 0.00 44 1015.2
20260503191933 61 239 12.2 17.4 0.00 0.00 0.00 45 1015.2
20260503191431 62 239 12.2 21.7 0.00 0.00 0.00 48 1015.4
20260503190927 62 217 14.8 18.2 0.00 0.00 0.00 47 1015.5
20260503190425 62 241 12.2 15.6 0.00 0.00 0.00 44 1015.4
20260503185921 62 220 16.5 19.1 0.00 0.00 0.00 45 1015.5
20260503185418 61 227 15.6 19.1 0.00 0.00 0.00 46 1015.5
20260503184917 61 211 15.6 19.1 0.00 0.00 0.00 45 1015.8
20260503184414 61 238 11.3 17.4 0.00 0.00 0.00 48 1016.0
20260503183910 61 225 16.5 20.0 0.00 0.00 0.00 44 1015.9
20260503183407 61 211 10.4 15.6 0.00 0.00 0.00 42 1015.9
20260503182904 61 232 11.3 19.1 0.00 0.00 0.00 48 1016.0
20260503182403 61 241 14.8 15.6 0.00 0.00 0.00 46 1016.2
20260503181859 62 255 11.3 15.6 0.00 0.00 0.00 46 1016.0
20260503181356 60 197 12.2 14.8 0.00 0.00 0.00 46 1016.3
20260503180853 60 244 12.2 17.4 0.00 0.00 0.00 46 1016.2
20260503180351 60 234 12.2 18.2 0.00 0.00 0.00 44 1016.4
20260503175847 62 246 13.0 19.1 0.00 0.00 0.00 46 1016.4
20260503175345 61 204 12.2 21.7 0.00 0.00 0.00 47 1016.3
20260503174840 60 230 11.3 19.1 0.00 0.00 0.00 47 1016.5
20260503174339 61 231 11.3 15.6 0.00 0.00 0.00 46 1016.5
20260503173834 61 248 12.2 19.1 0.00 0.00 0.00 47 1016.7
20260503173331 61 246 16.5 19.1 0.00 0.00 0.00 42 1016.6
20260503172827 61 192 10.4 15.6 0.00 0.00 0.00 46 1016.6
20260503172325 61 242 10.4 18.2 0.00 0.00 0.00 49 1016.8
20260503171821 60 252 14.8 20.0 0.00 0.00 0.00 46 1016.9
20260503171318 60 224 13.0 18.2 0.00 0.00 0.00 48 1016.8
20260503170815 61 244 12.2 15.6 0.00 0.00 0.00 49 1016.9
20260503170312 60 233 13.0 15.6 0.00 0.00 0.00 47 1016.9
20260503150704 55 242 10.4 12.2 0.00 0.00 0.00 56 1018.1
20260503150200 54 231 7.8 11.3 0.00 0.00 0.00 59 1018.2
20260503140124 50 231 11.3 18.2 0.00 0.00 0.00 62 1018.6
20260503131054 47 235 8.7 11.3 0.00 0.00 0.00 64 1018.8
20260503130551 47 231 7.8 12.2 0.00 0.00 0.00 66 1018.7